FW3145 Weather Reports


Display with metric or nautical units.
time (UTC)temp
F
wind
direction
speed
MPH
gust
MPH
rain 1hr
in
rain 24hr
in
rain mn
in
humidity
%
barometer
mb
20260510153053 69 255 0.0 0.0 0.00 0.09 0.09 72 1010.3
20260510151555 70 254 0.0 0.0 0.00 0.09 0.09 70 1010.2
20260510150120 70 214 0.0 0.0 0.00 0.09 0.09 69 1010.2
20260510144610 71 165 0.0 0.0 0.00 0.09 0.09 68 1010.0
20260510143056 72 236 0.0 0.0 0.00 0.09 0.09 67 1010.1
20260510141550 72 147 0.0 0.0 0.00 0.09 0.09 66 1010.1
20260510140048 72 340 0.0 0.0 0.00 0.09 0.09 66 1010.1
20260510134549 73 42 0.0 0.0 0.00 0.09 0.09 68 1010.4
20260510133047 72 9 0.0 0.0 0.00 0.09 0.09 73 1010.5
20260510131542 70 24 0.0 0.0 0.00 0.09 0.09 74 1010.8
20260510130038 69 19 0.0 0.0 0.00 0.09 0.09 77 1011.0
20260510124537 68 19 0.0 0.0 0.00 0.09 0.09 77 1010.7
20260510123032 68 329 0.0 0.0 0.00 0.09 0.09 77 1011.0
20260510121532 68 236 0.0 0.0 0.00 0.09 0.09 76 1011.2
20260510120029 68 243 0.0 0.0 0.00 0.09 0.09 76 1011.1
20260510114536 67 243 0.0 0.0 0.00 0.09 0.09 76 1011.2
20260510113038 67 244 0.0 0.0 0.01 0.09 0.09 77 1011.4
20260510111531 67 244 0.0 0.0 0.01 0.09 0.09 78 1011.4
20260510110035 67 236 0.0 0.0 0.01 0.09 0.09 79 1011.6
20260510104522 66 236 0.0 0.0 0.01 0.09 0.09 79 1011.7
20260510103024 66 238 0.0 0.0 0.00 0.09 0.09 78 1012.0
20260510101522 66 205 0.0 0.0 0.00 0.09 0.09 77 1012.0
20260510100025 66 228 0.0 0.0 0.00 0.09 0.09 78 1011.8
20260510094519 66 231 0.0 0.0 0.00 0.09 0.09 78 1011.9
20260510093018 66 215 0.0 0.0 0.00 0.09 0.09 78 1012.0
20260510091514 66 197 0.0 0.0 0.00 0.09 0.09 79 1012.0
20260510090012 65 263 0.0 0.0 0.00 0.09 0.09 79 1012.2
20260510084510 64 263 0.0 0.0 0.00 0.09 0.09 80 1012.3
20260510083014 64 278 0.0 0.0 0.00 0.09 0.09 80 1012.3
20260510081507 63 279 0.0 0.0 0.00 0.09 0.09 80 1012.3
20260510080007 63 347 0.0 0.0 0.00 0.09 0.09 79 1012.2
20260510074503 62 147 0.0 0.0 0.00 0.09 0.09 79 1012.4
20260510073103 61 145 0.0 0.0 0.00 0.09 0.09 79 1012.5
20260510071501 61 113 0.0 0.0 0.00 0.09 0.09 79 1012.5
20260510070112 61 44 0.0 0.0 0.00 0.09 0.09 78 1012.6
20260510064603 61 58 0.0 0.0 0.00 0.09 0.09 77 1012.6
20260510063101 60 65 0.0 0.0 0.00 0.09 0.09 78 1012.8
20260510061553 59 95 0.0 0.0 0.00 0.09 0.09 78 1013.0
20260510060052 58 208 0.0 0.0 0.00 0.09 0.09 78 1013.0
20260510054556 59 208 0.0 0.0 0.00 0.09 0.09 79 1012.8
20260510053050 60 180 0.0 0.0 0.00 0.09 0.09 78 1012.8
20260510051548 59 275 0.0 0.0 0.00 0.09 0.09 79 1012.6
20260510050044 59 275 0.0 0.0 0.00 0.09 0.09 79 1013.0
20260510044542 59 30 0.0 0.0 0.00 0.09 0.09 79 1012.8
20260510043040 59 15 0.0 0.0 0.01 0.09 0.09 79 1013.1
20260510041547 58 273 0.0 0.0 0.02 0.09 0.09 80 1013.2
20260510040038 59 309 0.0 0.0 0.02 0.09 0.09 81 1013.1
20260510034538 60 175 0.0 0.0 0.05 0.09 0.09 80 1012.9
20260510033044 60 57 0.0 0.0 0.06 0.08 0.08 80 1013.0
20260510031535 59 59 0.0 0.0 0.05 0.07 0.07 80 1013.3
20260510030035 59 29 0.0 0.0 0.03 0.06 0.06 81 1013.9
20260510024534 59 232 0.0 0.0 0.02 0.04 0.04 81 1014.3
20260510023033 59 226 0.0 0.0 0.01 0.02 0.02 82 1013.6
20260510021630 59 261 0.0 0.0 0.01 0.02 0.02 81 1013.3
20260510020032 60 260 0.0 0.0 0.01 0.02 0.02 81 1013.4
20260510014532 60 284 0.0 0.0 0.01 0.02 0.02 81 1013.5
20260510013029 61 74 0.0 0.0 0.02 0.02 0.02 80 1013.7
20260510011527 61 83 0.0 0.0 0.02 0.02 0.02 80 1013.7
20260510010026 61 61 0.0 0.0 0.02 0.02 0.02 80 1014.0
20260510004525 61 34 0.0 0.0 0.01 0.01 0.01 78 1014.1
20260510003024 61 68 0.0 0.0 0.00 0.00 0.00 76 1014.1
20260510001534 61 240 0.0 0.0 0.00 0.00 0.00 74 1013.9
20260510000020 61 249 0.0 0.0 0.00 0.00 0.00 75 1013.6
20260509234519 60 250 0.0 0.0 0.00 0.00 0.00 76 1013.3
20260509233019 60 246 0.0 0.0 0.00 0.00 0.00 74 1013.5
20260509231517 60 246 0.0 0.0 0.00 0.00 0.00 74 1013.4
20260509230019 60 320 0.0 0.0 0.00 0.00 0.00 73 1013.3
20260509224513 61 5 0.0 0.0 0.00 0.00 0.00 72 1013.2
20260509223013 62 350 0.0 0.0 0.00 0.00 0.00 71 1013.3
20260509221509 62 5 0.0 0.0 0.00 0.00 0.00 71 1013.1
20260509220008 63 341 0.0 0.0 0.00 0.00 0.00 69 1013.5
20260509214504 63 57 0.0 0.0 0.00 0.00 0.00 69 1013.1
20260509213005 63 300 0.0 0.0 0.00 0.00 0.00 67 1013.1
20260509211503 63 298 0.0 0.0 0.00 0.00 0.00 68 1013.1
20260509210003 65 178 0.0 0.0 0.00 0.00 0.00 66 1012.6
20260509204503 65 80 0.0 0.0 0.00 0.00 0.00 66 1013.0
20260509203102 65 75 0.0 0.0 0.00 0.00 0.00 67 1013.2
20260509203000 65 59 0.0 0.0 0.00 0.00 0.00 67 1013.2
20260509201601 64 42 0.0 0.0 0.00 0.00 0.00 68 1013.8
20260509200100 65 67 0.0 0.0 0.00 0.00 0.00 67 1014.3
20260509194559 66 74 0.0 0.0 0.00 0.00 0.00 64 1014.4
20260509193100 66 47 0.0 0.0 0.00 0.00 0.00 63 1014.4
20260509191609 66 55 0.0 0.0 0.00 0.00 0.00 62 1014.2
20260509190100 67 34 0.0 0.0 0.00 0.00 0.00 63 1014.3
20260509184558 68 90 0.0 0.0 0.00 0.00 0.00 61 1014.1
20260509183056 68 58 0.0 0.0 0.00 0.00 0.00 62 1013.5
20260509181603 68 45 0.0 0.0 0.00 0.00 0.00 61 1013.6
20260509180058 69 57 0.0 0.0 0.00 0.00 0.00 61 1013.3
20260509174602 70 88 0.0 0.0 0.00 0.00 0.00 59 1013.3
20260509173109 71 244 0.0 0.0 0.00 0.00 0.00 56 1013.1
20260509171600 72 251 0.0 0.0 0.00 0.00 0.00 51 1013.0
20260509170053 72 263 0.0 0.0 0.00 0.00 0.00 50 1013.0
20260509164553 74 269 0.0 0.0 0.00 0.00 0.00 48 1012.9
20260509163100 74 281 0.0 0.0 0.00 0.00 0.00 50 1012.8
20260509161551 75 233 0.0 0.0 0.00 0.00 0.00 47 1012.7
20260509160057 77 240 0.0 0.0 0.00 0.00 0.00 45 1012.7
20260509154559 78 180 0.0 0.0 0.00 0.00 0.00 43 1012.7